Погода в Порту-Санту

Португалия     33°04′06″N   16°20′32″W
темп.,
°C
ветер,
м/с
пор.,
м/с
влажн.,
%
обл.,
%
осадки,
мм/ч
давл.,
гПа
погр.,
м
27 января, чт
чт2700:00+16св887189 1.8 10221014
03:00+16ссв887145 1.0 10221039
06:00+15ссв887011 2.0 10211046
09:00+15ссв776959 0.9 10211023
12:00+15ссв55685 1.3 1022912
15:00+16ссв666521 0.6 10191116
18:00+16ссв787165 1.6 10191031
21:00+17св8968100 1.8 10201173
28 января, пт
пт2800:00+17ссв8872100 2.3 10201006
03:00+16ссв56745 0.6 1018806
06:00+16св3474100 2.3 1018325
09:00+17юв7769100 1.3 1019825
12:00+17юв786516 1.4 1021981
15:00+17вюв786575 1.4 1020966
18:00+17в7867100 2.3 1021825
21:00+17всв796949 0.7 1022834
29 января, сб
сб2900:00+17всв896947 0.9 1022844
03:00+17всв886730 0.0 1021846
06:00+17всв787436 0.8 1021714
09:00+18всв776873 0.6 1022744
12:00+18в666796 0.6 1023689
15:00+18в456275 0.9 1021502
18:00+18всв446722 1.0 1022329
21:00+18всв66682 0.0 1023514
30 января, вс
вс3000:00+18всв67670 0.0 1023596
03:00+18всв78670 0.0 1022614
06:00+18всв78695 0.0 1021667
09:00+18всв787464 0.8 1022579
12:00+18всв89740 1.0 1022727
15:00+18всв78745 0.9 1020456
18:00+18всв897870 1.4 1020550
21:00+18всв91080100 0.3 1021583
31 января, пн
пн3100:00+18всв101283100 0.9 1021645
03:00+18всв101284100 1.0 1020617
06:00+18всв10128238 2.1 1020705
09:00+18всв1112836 0.8 1021929
12:00+19всв1114810 1.6 1021835
15:00+19всв1014760 0.6 1020761
18:00+19всв1014783 1.1 1020629
21:00+18в121385100 0.6 10221016